Location: Borgo
(42.3939°N, 9.2791°E)
Time: 21:56:08
(UTC+00:00)

Cosmos 923 Rocket - Pass Details

Date: 24 January 2021
Orbit: 758 x 785 km, 74.0° (Epoch: 02 March)

Event Time Altitude Azimuth Distance (km) Brightness Sun altitude
Rises 17:28:48 0° 341° (NNW) 3,283 7.3 -11.6°
Reaches altitude 10° 17:31:13 10° 343° (NNW) 2,349 6.6 -12.0°
Maximum altitude 17:36:33 76° 69° (ENE) 807 4.0 -13.0°
Drops below altitude 10° 17:41:50 10° 156° (SSE) 2,319 6.4 -13.9°
Sets 17:44:12 0° 158° (SSE) 3,238 7.1 -14.3°
